TimeCST,TemperatureF,Dew PointF,Humidity,Sea Level PressureIn,VisibilityMPH,Wind Direction,Wind SpeedMPH,Gust SpeedMPH,PrecipitationIn,Events,Conditions,WindDirDegrees,DateUTC
12:53 AM,46.9,14.0,27,29.99,10.0,SSE,16.1,23.0,N/A,,Clear,150,2013-03-07 06:53:00
1:53 AM,46.0,14.0,28,29.98,10.0,SSE,16.1,-,N/A,,Clear,150,2013-03-07 07:53:00
2:53 AM,45.0,14.0,29,29.95,10.0,SSE,12.7,-,N/A,,Clear,160,2013-03-07 08:53:00
3:53 AM,44.1,14.0,30,29.93,10.0,SSE,11.5,-,N/A,,Clear,160,2013-03-07 09:53:00
4:53 AM,44.1,15.1,31,29.93,10.0,SSE,10.4,-,N/A,,Clear,160,2013-03-07 10:53:00
5:53 AM,43.0,16.0,34,29.94,10.0,SSE,10.4,-,N/A,,Clear,150,2013-03-07 11:53:00
6:53 AM,42.1,16.0,35,29.95,10.0,SSE,10.4,-,N/A,,Clear,150,2013-03-07 12:53:00
7:53 AM,45.0,16.0,31,29.97,10.0,South,11.5,-,N/A,,Clear,170,2013-03-07 13:53:00
8:53 AM,51.1,19.9,29,29.98,10.0,Calm,Calm,-,N/A,,Clear,0,2013-03-07 14:53:00
9:53 AM,57.0,19.9,24,29.99,10.0,NNE,3.5,-,N/A,,Clear,20,2013-03-07 15:53:00
10:53 AM,68.0,21.0,17,29.96,10.0,Variable,4.6,-,N/A,,Clear,0,2013-03-07 16:53:00
11:53 AM,73.0,21.0,14,29.94,10.0,Variable,3.5,-,N/A,,Clear,0,2013-03-07 17:53:00
12:53 PM,77.0,21.0,12,29.92,10.0,ENE,6.9,-,N/A,,Clear,60,2013-03-07 18:53:00
1:06 PM,78.8,21.2,12,30.00,9.0,NE,8.1,-,N/A,,Partly Cloudy,50,2013-03-07 19:06:00
1:53 PM,79.0,19.9,11,29.87,10.0,Calm,Calm,-,N/A,,Clear,0,2013-03-07 19:53:00
2:53 PM,79.0,19.9,11,29.84,10.0,SE,15.0,24.2,N/A,,Clear,130,2013-03-07 20:53:00
3:53 PM,79.0,19.9,11,29.83,10.0,SSE,19.6,26.5,N/A,,Clear,150,2013-03-07 21:53:00
4:53 PM,75.9,19.9,12,29.83,10.0,SSE,21.9,29.9,N/A,,Clear,150,2013-03-07 22:53:00
5:53 PM,69.1,19.0,15,29.85,10.0,SSE,20.7,28.8,N/A,,Clear,150,2013-03-07 23:53:00
6:53 PM,64.0,25.0,23,29.88,10.0,SSE,24.2,31.1,N/A,,Clear,160,2013-03-08 00:53:00
7:53 PM,60.1,30.9,33,29.89,10.0,SSE,28.8,36.8,N/A,,Clear,160,2013-03-08 01:53:00
8:53 PM,57.9,35.1,42,29.90,10.0,SSE,26.5,39.1,N/A,,Clear,160,2013-03-08 02:53:00
9:53 PM,59.0,41.0,51,29.91,10.0,SSE,24.2,34.5,N/A,,Clear,160,2013-03-08 03:53:00
10:53 PM,59.0,43.0,55,29.89,10.0,SSE,26.5,34.5,N/A,,Clear,160,2013-03-08 04:53:00
11:53 PM,59.0,43.0,55,29.87,10.0,SSE,20.7,29.9,N/A,,Clear,160,2013-03-08 05:53:00